• In Hungary
  • List of Countries
  • For 7 days
  • Water Temperature
  • Satellite Maps
  • Weather Map
  • News
  • Weather Widgets
  • user-avatar
    Login

    Hourly Weather Zobwe

    Today, 25 September, Tuesday

    Time Temperature Precipitation Wind Pressure Humidity
    00:00 +27°C° 0 mm 1 mps 721 mmHg 40%
    01:00 +26°C° 0 mm 1 mps 721 mmHg 41%
    02:00 +26°C° 0 mm 1 mps 720 mmHg 42%
    03:00 +25°C° 0 mm 1 mps 721 mmHg 43%
    04:00 +25°C° 0 mm 1 mps 721 mmHg 44%
    05:00 +25°C° 0 mm 2 mps 721 mmHg 45%
    06:00 +26°C° 0 mm 2 mps 721 mmHg 44%
    07:00 +28°C° 0 mm 2 mps 722 mmHg 43%
    08:00 +30°C° 0 mm 2 mps 722 mmHg 43%
    09:00 +31°C° 0 mm 2 mps 722 mmHg 39%
    10:00 +34°C° 0 mm 2 mps 722 mmHg 35%
    11:00 +35°C° 0 mm 3 mps 722 mmHg 32%
    12:00 +36°C° 0 mm 3 mps 721 mmHg 31%
    13:00 +36°C° 0 mm 3 mps 720 mmHg 30%
    14:00 +37°C° 0 mm 3 mps 720 mmHg 28%
    15:00 +36°C° 0 mm 3 mps 719 mmHg 30%
    16:00 +35°C° 0 mm 3 mps 719 mmHg 32%
    17:00 +34°C° 0 mm 3 mps 719 mmHg 34%
    18:00 +32°C° 0 mm 2 mps 719 mmHg 36%
    19:00 +31°C° 0 mm 2 mps 719 mmHg 39%
    20:00 +30°C° 0 mm 1 mps 720 mmHg 42%
    21:00 +29°C° 0 mm 1 mps 720 mmHg 43%
    22:00 +29°C° 0 mm 1 mps 720 mmHg 44%
    23:00 +28°C° 0 mm 1 mps 720 mmHg 46%

    Tomorrow, 26 September, Wednesday

    Time Temperature Precipitation Wind Pressure Humidity
    00:00 +28°C° 0 mm 1 mps 720 mmHg 47%
    01:00 +27°C° 0 mm 1 mps 720 mmHg 48%
    02:00 +27°C° 0 mm 1 mps 719 mmHg 49%
    03:00 +26°C° 0 mm 1 mps 720 mmHg 51%
    04:00 +26°C° 0 mm 1 mps 720 mmHg 53%
    05:00 +25°C° 0 mm 1 mps 720 mmHg 54%
    06:00 +27°C° 0 mm 1 mps 721 mmHg 51%
    07:00 +29°C° 0 mm 1 mps 721 mmHg 48%
    08:00 +31°C° 0 mm 1 mps 722 mmHg 45%
    09:00 +32°C° 0 mm 2 mps 722 mmHg 41%
    10:00 +35°C° 0 mm 2 mps 722 mmHg 37%
    11:00 +37°C° 0 mm 3 mps 721 mmHg 33%
    12:00 +37°C° 0 mm 3 mps 720 mmHg 32%
    13:00 +37°C° 0 mm 3 mps 720 mmHg 30%
    14:00 +38°C° 0 mm 3 mps 719 mmHg 29%
    15:00 +37°C° 0 mm 3 mps 718 mmHg 31%
    16:00 +36°C° 0 mm 3 mps 718 mmHg 32%
    17:00 +36°C° 0 mm 3 mps 718 mmHg 33%
    18:00 +34°C° 0 mm 2 mps 718 mmHg 36%
    19:00 +32°C° 0 mm 1 mps 719 mmHg 38%
    20:00 +31°C° 0 mm 1 mps 719 mmHg 41%
    21:00 +30°C° 0 mm 1 mps 719 mmHg 42%
    22:00 +30°C° 0 mm 1 mps 720 mmHg 43%
    23:00 +29°C° 0 mm 1 mps 720 mmHg 44%

    Day after tomorrow, 27 September, Thursday

    Time Temperature Precipitation Wind Pressure Humidity
    00:00 +29°C° 0 mm 1 mps 720 mmHg 45%
    01:00 +28°C° 0 mm 1 mps 719 mmHg 45%
    02:00 +28°C° 0 mm 1 mps 719 mmHg 46%
    03:00 +27°C° 0 mm 1 mps 719 mmHg 48%
    04:00 +27°C° 0 mm 1 mps 720 mmHg 50%
    05:00 +26°C° 0 mm 1 mps 720 mmHg 52%
    06:00 +28°C° 0 mm 1 mps 721 mmHg 50%
    07:00 +29°C° 0 mm 1 mps 721 mmHg 49%
    08:00 +31°C° 0 mm 1 mps 722 mmHg 47%
    09:00 +32°C° 0 mm 2 mps 722 mmHg 42%
    10:00 +35°C° 0 mm 2 mps 721 mmHg 37%
    11:00 +37°C° 0 mm 3 mps 721 mmHg 32%
    12:00 +38°C° 0 mm 3 mps 720 mmHg 29%
    13:00 +38°C° 0 mm 3 mps 719 mmHg 27%
    14:00 +39°C° 0 mm 3 mps 718 mmHg 25%
    15:00 +38°C° 0 mm 3 mps 718 mmHg 26%
    16:00 +37°C° 0 mm 3 mps 718 mmHg 28%
    17:00 +36°C° 0 mm 3 mps 718 mmHg 29%
    18:00 +35°C° 0 mm 2 mps 718 mmHg 32%
    19:00 +34°C° 0 mm 2 mps 719 mmHg 35%
    20:00 +32°C° 0 mm 1 mps 719 mmHg 37%
    21:00 +31°C° 0 mm 1 mps 720 mmHg 40%
    22:00 +30°C° 0 mm 1 mps 720 mmHg 43%
    23:00 +29°C° 0 mm 1 mps 720 mmHg 46%

    28 September, Friday

    Time Temperature Precipitation Wind Pressure Humidity
    00:00 +29°C° 0 mm 1 mps 720 mmHg 48%
    01:00 +28°C° 0 mm 1 mps 719 mmHg 51%
    02:00 +27°C° 0 mm 1 mps 719 mmHg 53%
    03:00 +27°C° 0 mm 1 mps 719 mmHg 55%
    04:00 +27°C° 0 mm 1 mps 720 mmHg 57%
    05:00 +26°C° 0 mm 1 mps 720 mmHg 59%
    06:00 +28°C° 0 mm 1 mps 721 mmHg 54%
    07:00 +29°C° 0 mm 1 mps 721 mmHg 48%
    08:00 +30°C° 0 mm 2 mps 722 mmHg 42%
    09:00 +32°C° 0 mm 2 mps 721 mmHg 38%
    10:00 +35°C° 0 mm 3 mps 721 mmHg 33%
    11:00 +37°C° 0 mm 3 mps 721 mmHg 28%
    12:00 +37°C° 0 mm 3 mps 720 mmHg 26%
    13:00 +38°C° 0 mm 3 mps 719 mmHg 24%
    14:00 +39°C° 0 mm 3 mps 718 mmHg 22%
    15:00 +38°C° 0 mm 3 mps 718 mmHg 22%
    16:00 +37°C° 0 mm 3 mps 718 mmHg 23%
    17:00 +36°C° 0 mm 3 mps 718 mmHg 23%
    18:00 +35°C° 0 mm 2 mps 718 mmHg 26%
    19:00 +32°C° 0 mm 2 mps 719 mmHg 28%
    20:00 +31°C° 0 mm 1 mps 719 mmHg 31%
    21:00 +30°C° 0 mm 1 mps 719 mmHg 33%
    22:00 +29°C° 0 mm 1 mps 719 mmHg 35%
    23:00 +29°C° 0 mm 1 mps 719 mmHg 36%

    29 September, Saturday

    Time Temperature Precipitation Wind Pressure Humidity
    00:00 +28°C° 0 mm 1 mps 719 mmHg 38%
    01:00 +27°C° 0 mm 1 mps 719 mmHg 40%
    02:00 +27°C° 0 mm 1 mps 719 mmHg 41%
    03:00 +26°C° 0 mm 1 mps 719 mmHg 43%
    04:00 +26°C° 0 mm 1 mps 719 mmHg 45%
    05:00 +25°C° 0 mm 1 mps 720 mmHg 47%
    06:00 +27°C° 0 mm 1 mps 721 mmHg 45%
    07:00 +29°C° 0 mm 1 mps 721 mmHg 42%
    08:00 +31°C° 0 mm 1 mps 722 mmHg 40%
    09:00 +32°C° 0 mm 2 mps 722 mmHg 36%
    10:00 +35°C° 0 mm 2 mps 721 mmHg 31%
    11:00 +37°C° 0 mm 3 mps 721 mmHg 27%
    12:00 +37°C° 0 mm 3 mps 720 mmHg 25%
    13:00 +38°C° 0 mm 3 mps 720 mmHg 24%
    14:00 +38°C° 0 mm 3 mps 719 mmHg 23%
    15:00 +37°C° 0 mm 3 mps 719 mmHg 24%
    16:00 +37°C° 0 mm 3 mps 719 mmHg 25%
    17:00 +36°C° 0 mm 3 mps 719 mmHg 26%
    18:00 +35°C° 0 mm 3 mps 720 mmHg 27%
    19:00 +33°C° 0 mm 3 mps 720 mmHg 29%
    20:00 +31°C° 0 mm 3 mps 721 mmHg 30%
    21:00 +31°C° 0 mm 3 mps 721 mmHg 31%
    22:00 +31°C° 0 mm 3 mps 721 mmHg 31%
    23:00 +30°C° 0 mm 4 mps 721 mmHg 31%

    30 September, Sunday

    Time Temperature Precipitation Wind Pressure Humidity
    00:00 +30°C° 0 mm 4 mps 721 mmHg 34%
    01:00 +29°C° 0 mm 4 mps 721 mmHg 36%
    02:00 +28°C° 0 mm 5 mps 721 mmHg 39%
    03:00 +28°C° 0 mm 5 mps 722 mmHg 43%
    04:00 +27°C° 0 mm 4 mps 722 mmHg 47%
    05:00 +26°C° 0 mm 4 mps 723 mmHg 51%
    06:00 +27°C° 0 mm 4 mps 723 mmHg 50%
    07:00 +28°C° 0 mm 4 mps 724 mmHg 49%
    08:00 +28°C° 0 mm 5 mps 724 mmHg 48%
    09:00 +30°C° 0 mm 5 mps 724 mmHg 43%
    10:00 +33°C° 0 mm 5 mps 723 mmHg 37%
    11:00 +34°C° 0 mm 5 mps 723 mmHg 32%
    12:00 +34°C° 0 mm 5 mps 722 mmHg 31%
    13:00 +34°C° 0 mm 5 mps 721 mmHg 31%
    14:00 +34°C° 0 mm 5 mps 720 mmHg 30%
    15:00 +34°C° 0 mm 5 mps 721 mmHg 30%
    16:00 +33°C° 0 mm 5 mps 721 mmHg 30%
    17:00 +33°C° 0 mm 5 mps 721 mmHg 30%
    18:00 +32°C° 0.1 mm 5 mps 721 mmHg 37%
    19:00 +29°C° 0.1 mm 5 mps 722 mmHg 43%
    20:00 +28°C° 0.1 mm 6 mps 722 mmHg 49%
    21:00 +27°C° 0.1 mm 6 mps 723 mmHg 54%
    22:00 +26°C° 0.1 mm 6 mps 723 mmHg 58%
    23:00 +26°C° 0.1 mm 6 mps 723 mmHg 63%
    Show more